User: anonymous
Location: Fort Wayne
(41.1310°N, 85.1290°W)
Time: 00:12:31
(UTC-04:00)
Language:

Cosmos 2082 - Orbit

View from above orbital plane
View from above orbital plane
View from above satellite
View from above satellite

Ground track
Ground track

The orbit data is extracted from the following two-line orbital elements,

1 20624U 90046A   14105.15696654  .00000269  00000-0  16584-3 0  8966
2 20624 071.0396 120.2398 0015616 347.2130 075.2572 14.14066241233348
Epoch (UTC): 15 April 2014 03:46:01
Eccentricity: 0.0015616
inclination: 71.0396°
perigee height: 834 km
apogee height: 857 km
right ascension of ascending node: 120.2398°
argument of perigee: 347.2130°
revolutions per day: 14.14066241
mean anomaly at epoch: 75.2572°
orbit number at epoch: 23334

The dashed part of the orbit path shows where the satellite is in the earth's shadow,  

DLR